Temp
-8 -8 -8 -8 -8 -7 -7 -6 -8 -8 -8 -9 -10 -9 -9 -10 -10 -10 -8 -7 -7 -7 -7 -7 -7 -6 -6 -6 -6 -5 -5 -5 -5 -5 -5 -4 -4 -4 -4 -4 -4 -4 -4 -4 -5 -4 -5 -5 -5
-8 -8 -8 -8 -8 -7 -7 -7 -7 -8 -8 -10 -9 -9 -10 -11 -10 -9 -8 -8 -7 -7 -7 -7 -7 -7 -6 -6 -6 -6 -5 -5 -5 -5 -5 -4 -4 -4 -4 -5 -5 -5 -5 -5 -5 -5 -5 -5 -5
-8 -8 -8 -8 -8 -7 -8 -8 -8 -8 -8 -9 -9 -9 -10 -10 -10 -10 -9 -9 -8 -7 -7 -7 -7 -7 -7 -7 -6 -6 -6 -6 -5 -5 -5 -5 -5 -5 -5 -5 -5 -5 -5 -5 -5 -5 -5 -5 -5
-9 -9 -8 -8 -7 -8 -8 -8 -9 -8 -9 -9 -9 -10 -9 -11 -10 -10 -10 -10 -8 -8 -7 -7 -7 -7 -7 -7 -7 -6 -6 -6 -6 -6 -5 -5 -5 -5 -5 -5 -5 -5 -5 -5 -5 -5 -5 -5 -5
-10 -9 -8 -8 -8 -8 -8 -8 -9 -10 -9 -9 -9 -9 -9 -11 -11 -11 -10 -10 -9 -8 -8 -8 -7 -8 -8 -7 -7 -6 -6 -6 -6 -6 -6 -5 -5 -5 -5 -5 -5 -5 -5 -5 -5 -5 -5 -5 -6
-10 -10 -9 -8 -8 -8 -8 -8 -8 -9 -10 -10 -10 -10 -10 -11 -11 -11 -11 -10 -10 -9 -8 -8 -7 -7 -8 -8 -7 -7 -7 -6 -6 -6 -6 -6 -6 -5 -5 -5 -5 -5 -5 -5 -5 -6 -6 -6 -6
-11 -10 -9 -9 -9 -9 -8 -8 -8 -9 -10 -10 -11 -11 -11 -11 -12 -11 -10 -10 -10 -9 -9 -8 -8 -8 -7 -8 -8 -7 -7 -7 -7 -6 -6 -6 -6 -6 -6 -6 -6 -5 -6 -6 -6 -6 -6 -6 -6
-11 -11 -9 -9 -9 -8 -9 -9 -9 -10 -10 -12 -12 -12 -12 -12 -12 -11 -11 -10 -10 -9 -9 -9 -8 -8 -8 -8 -8 -8 -7 -7 -7 -7 -7 -6 -6 -6 -6 -6 -6 -6 -6 -6 -6 -6 -6 -6 -6
-11 -11 -9 -9 -9 -9 -9 -9 -10 -11 -12 -12 -13 -13 -12 -14 -11 -11 -10 -10 -9 -9 -10 -10 -9 -8 -8 -8 -8 -8 -8 -7 -7 -7 -7 -7 -7 -6 -6 -6 -6 -6 -6 -6 -6 -6 -6 -6 -7
-11 -11 -10 -10 -10 -10 -10 -10 -11 -13 -13 -13 -14 -14 -14 -13 -12 -11 -10 -9 -9 -8 -8 -8 -10 -9 -8 -8 -8 -8 -8 -8 -8 -8 -7 -7 -7 -7 -7 -6 -6 -6 -6 -6 -6 -6 -6 -7 -7
-12 -11 -10 -10 -10 -10 -10 -11 -12 -12 -16 -16 -15 -16 -15 -13 -13 -11 -12 -9 -10 -8 -9 -9 -10 -9 -9 -9 -8 -8 -8 -8 -8 -8 -7 -7 -7 -7 -7 -7 -7 -6 -7 -7 -7 -7 -7 -7 -7
-12 -11 -11 -10 -11 -11 -11 -12 -15 -14 -17 -18 -16 -17 -16 -13 -12 -11 -12 -11 -10 -9 -9 -9 -9 -9 -9 -9 -9 -9 -8 -8 -8 -8 -8 -8 -8 -7 -7 -7 -7 -7 -7 -7 -7 -7 -7 -7 -7
-12 -12 -11 -12 -13 -15 -16 -15 -17 -17 -18 -19 -19 -17 -16 -13 -12 -12 -11 -12 -9 -9 -9 -9 -8 -9 -10 -10 -10 -9 -9 -9 -9 -9 -8 -8 -8 -8 -7 -7 -7 -7 -7 -7 -7 -7 -7 -8 -8
-13 -13 -14 -16 -18 -21 -21 -19 -20 -19 -19 -20 -18 -17 -16 -15 -14 -13 -11 -12 -9 -9 -9 -9 -9 -9 -10 -10 -10 -10 -9 -9 -9 -9 -9 -8 -8 -8 -8 -8 -8 -8 -8 -8 -7 -8 -8 -8 -8
-17 -17 -20 -21 -22 -22 -23 -22 -21 -21 -21 -20 -19 -18 -16 -15 -15 -12 -12 -12 -10 -10 -10 -10 -10 -10 -10 -9 -9 -10 -10 -10 -10 -10 -9 -9 -9 -9 -8 -8 -8 -8 -8 -8 -8 -8 -8 -8 -8
-20 -21 -21 -21 -21 -22 -24 -21 -22 -22 -21 -20 -19 -18 -17 -16 -15 -12 -13 -13 -11 -10 -10 -10 -10 -10 -9 -9 -9 -9 -10 -10 -10 -10 -10 -10 -9 -9 -9 -9 -9 -9 -9 -9 -9 -10 -9 -9 -9
-21 -21 -21 -21 -21 -22 -22 -22 -22 -22 -21 -19 -19 -18 -17 -16 -14 -13 -13 -13 -11 -11 -11 -11 -11 -11 -10 -10 -9 -9 -9 -9 -10 -10 -11 -11 -10 -10 -10 -10 -10 -10 -9 -9 -11 -9 -9 -9 -9
-21 -21 -21 -21 -21 -21 -22 -22 -21 -20 -21 -20 -19 -18 -17 -16 -14 -14 -13 -13 -11 -12 -11 -12 -11 -11 -11 -10 -9 -9 -9 -9 -10 -11 -11 -11 -11 -11 -11 -11 -11 -10 -10 -10 -11 -10 -10 -10 -9
-21 -21 -21 -21 -21 -20 -21 -21 -21 -20 -20 -20 -19 -17 -16 -15 -14 -13 -12 -12 -12 -12 -12 -12 -11 -11 -11 -11 -10 -9 -9 -9 -10 -12 -12 -12 -12 -12 -12 -12 -11 -11 -11 -12 -11 -11 -11 -10 -10
-21 -21 -21 -20 -20 -20 -21 -21 -21 -20 -20 -19 -18 -16 -15 -15 -13 -14 -12 -12 -12 -12 -13 -12 -12 -11 -11 -11 -11 -10 -11 -10 -10 -11 -11 -12 -12 -12 -12 -13 -13 -12 -11 -11 -11 -11 -11 -11 -11
-21 -21 -20 -20 -20 -20 -20 -20 -19 -19 -19 -19 -17 -16 -15 -15 -14 -13 -12 -12 -12 -13 -12 -11 -12 -12 -12 -11 -11 -11 -11 -11 -11 -11 -10 -11 -11 -12 -12 -13 -13 -13 -12 -12 -11 -11 -11 -11 -11
-20 -20 -20 -19 -19 -19 -19 -18 -18 -18 -17 -18 -16 -16 -15 -14 -14 -13 -12 -12 -13 -12 -12 -12 -12 -12 -12 -12 -12 -12 -11 -11 -11 -11 -11 -11 -12 -12 -12 -14 -13 -13 -12 -12 -11 -11 -11 -11 -11
-20 -20 -20 -19 -19 -18 -18 -19 -17 -16 -16 -16 -16 -15 -15 -14 -14 -13 -13 -12 -13 -12 -12 -12 -12 -12 -12 -12 -12 -12 -12 -12 -12 -11 -11 -11 -12 -11 -12 -12 -12 -12 -11 -11 -11 -11 -11 -11 -12
-19 -19 -19 -19 -18 -18 -18 -18 -16 -16 -15 -15 -16 -16 -15 -15 -14 -13 -13 -12 -12 -12 -12 -12 -12 -12 -13 -12 -12 -12 -12 -12 -12 -12 -12 -11 -12 -11 -12 -12 -12 -12 -12 -11 -11 -11 -12 -12 -12
-19 -19 -19 -18 -18 -18 -17 -17 -16 -15 -16 -15 -15 -15 -15 -15 -14 -14 -14 -14 -13 -13 -13 -13 -13 -13 -13 -13 -12 -12 -13 -12 -12 -12 -12 -12 -13 -12 -13 -12 -12 -12 -12 -11 -12 -12 -12 -12 -12
-19 -19 -18 -19 -18 -17 -17 -17 -16 -15 -14 -15 -15 -15 -15 -15 -14 -15 -14 -14 -14 -14 -14 -14 -14 -14 -14 -14 -14 -14 -13 -13 -13 -13 -13 -12 -12 -12 -12 -12 -13 -12 -13 -13 -12 -12 -12 -14 -15
-19 -19 -18 -18 -18 -17 -16 -17 -16 -16 -16 -16 -15 -16 -15 -15 -15 -15 -15 -15 -14 -15 -15 -15 -15 -15 -15 -15 -14 -14 -15 -14 -14 -14 -14 -14 -14 -14 -13 -13 -13 -13 -13 -13 -14 -15 -15 -15 -14
-18 -18 -18 -17 -18 -17 -17 -17 -16 -16 -16 -15 -15 -15 -15 -15 -15 -15 -15 -15 -15 -15 -15 -14 -15 -15 -14 -14 -14 -14 -14 -14 -14 -13 -13 -14 -14 -13 -14 -15 -14 -14 -14 -15 -15 -15 -14 -14 -14
-18 -17 -17 -17 -17 -17 -17 -17 -16 -16 -16 -15 -16 -16 -16 -15 -15 -15 -15 -15 -15 -15 -15 -15 -14 -14 -14 -14 -14 -14 -14 -13 -13 -13 -13 -13 -13 -13 -14 -14 -14 -14 -14 -13 -13 -13 -13 -13 -13
-17 -17 -17 -16 -17 -16 -16 -16 -16 -16 -16 -16 -15 -16 -15 -15 -15 -15 -14 -14 -15 -15 -15 -15 -15 -15 -14 -14 -14 -14 -14 -14 -14 -14 -14 -13 -13 -14 -14 -14 -14 -14 -14 -14 -13 -13 -14 -13 -14
Height
5778 5778 5778 5778 5779 5780 5782 5787 5791 5790 5793 5797 5797 5801 5810 5814 5818 5818 5827 5832 5836 5842 5845 5848 5852 5854 5857 5858 5860 5862 5863 5863 5865 5865 5866 5866 5867 5868 5869 5869 5869 5870 5870 5870 5870 5870 5869 5870 5870
5769 5770 5769 5767 5767 5769 5776 5781 5782 5784 5786 5786 5786 5794 5801 5805 5807 5813 5824 5828 5832 5837 5840 5844 5848 5850 5853 5856 5857 5859 5861 5862 5863 5863 5864 5865 5865 5867 5868 5868 5868 5869 5869 5869 5869 5869 5869 5869 5870
5759 5760 5759 5759 5755 5763 5770 5770 5771 5772 5772 5779 5779 5782 5788 5793 5799 5809 5819 5822 5828 5832 5835 5839 5842 5846 5849 5852 5854 5856 5858 5859 5860 5861 5862 5863 5864 5865 5866 5867 5867 5868 5868 5868 5868 5868 5868 5869 5869
5748 5750 5750 5748 5749 5757 5759 5763 5763 5760 5761 5765 5770 5772 5777 5787 5794 5803 5809 5815 5822 5826 5829 5834 5837 5840 5844 5848 5850 5852 5854 5856 5857 5858 5859 5861 5863 5864 5864 5865 5866 5866 5867 5867 5867 5868 5868 5867 5868
5738 5739 5739 5738 5743 5747 5748 5749 5754 5751 5750 5754 5758 5763 5766 5777 5784 5793 5801 5806 5813 5820 5823 5828 5832 5835 5839 5843 5846 5848 5850 5852 5853 5855 5856 5859 5861 5861 5862 5863 5863 5865 5865 5866 5866 5866 5867 5867 5867
5724 5728 5729 5731 5732 5734 5737 5739 5739 5742 5742 5739 5749 5750 5756 5763 5772 5784 5789 5799 5805 5813 5818 5821 5825 5830 5833 5837 5840 5843 5846 5848 5850 5851 5853 5856 5858 5859 5859 5860 5861 5863 5863 5864 5864 5864 5865 5865 5866
5711 5714 5720 5719 5720 5720 5725 5728 5728 5726 5729 5731 5739 5736 5746 5749 5761 5772 5781 5790 5798 5803 5809 5814 5818 5823 5827 5831 5835 5837 5841 5843 5845 5848 5850 5852 5854 5855 5856 5857 5858 5859 5861 5862 5862 5863 5863 5863 5863
5698 5698 5705 5710 5708 5710 5712 5711 5712 5712 5715 5724 5724 5724 5733 5739 5751 5759 5767 5780 5788 5795 5799 5806 5809 5814 5820 5824 5828 5832 5835 5837 5840 5843 5846 5848 5849 5851 5853 5854 5856 5857 5858 5859 5860 5860 5861 5861 5861
5682 5685 5695 5696 5692 5693 5692 5694 5697 5698 5699 5706 5710 5713 5721 5728 5736 5747 5756 5767 5778 5774 5779 5793 5800 5805 5810 5816 5821 5825 5829 5832 5835 5838 5841 5843 5846 5847 5849 5851 5852 5854 5855 5856 5857 5857 5858 5858 5859
5667 5671 5679 5678 5673 5672 5674 5675 5679 5682 5682 5688 5696 5702 5708 5714 5724 5735 5742 5749 5761 5752 5761 5772 5787 5795 5801 5808 5814 5819 5824 5827 5830 5833 5835 5838 5841 5844 5846 5847 5848 5850 5852 5853 5854 5855 5855 5856 5856
5652 5659 5659 5662 5655 5653 5656 5653 5656 5666 5665 5674 5684 5690 5697 5706 5712 5727 5731 5736 5748 5759 5748 5766 5773 5784 5793 5798 5805 5811 5817 5821 5825 5828 5831 5833 5836 5838 5841 5843 5845 5847 5848 5849 5851 5851 5852 5853 5853
5638 5639 5638 5640 5636 5632 5634 5636 5630 5645 5649 5660 5671 5678 5685 5696 5707 5716 5723 5726 5738 5746 5753 5753 5773 5776 5785 5792 5797 5804 5809 5814 5819 5823 5826 5829 5832 5834 5837 5839 5841 5843 5844 5845 5847 5847 5848 5849 5850
5622 5618 5618 5617 5615 5612 5613 5615 5613 5625 5636 5650 5654 5661 5673 5691 5700 5705 5711 5721 5735 5748 5755 5760 5759 5751 5773 5783 5789 5796 5803 5808 5813 5817 5820 5824 5827 5830 5831 5833 5835 5837 5839 5841 5843 5843 5843 5844 5844
5606 5603 5599 5598 5598 5597 5595 5601 5602 5612 5626 5638 5642 5655 5666 5683 5688 5701 5704 5716 5727 5735 5746 5752 5750 5747 5761 5773 5782 5788 5794 5800 5806 5811 5815 5818 5821 5824 5826 5828 5830 5832 5833 5835 5837 5838 5838 5839 5839
5592 5592 5589 5589 5588 5583 5584 5582 5584 5603 5614 5624 5636 5650 5660 5673 5682 5694 5702 5710 5717 5728 5736 5740 5734 5744 5751 5762 5771 5779 5785 5792 5798 5804 5808 5812 5816 5818 5821 5823 5825 5827 5828 5830 5832 5832 5833 5833 5834
5589 5588 5586 5584 5580 5577 5572 5576 5583 5596 5606 5618 5627 5638 5651 5665 5682 5688 5696 5701 5708 5719 5731 5733 5735 5739 5744 5752 5761 5770 5776 5783 5790 5796 5801 5806 5809 5811 5814 5817 5819 5821 5823 5825 5827 5828 5828 5828 5828
5587 5586 5584 5582 5577 5572 5570 5576 5581 5592 5604 5612 5623 5633 5649 5665 5681 5682 5694 5696 5706 5713 5724 5727 5731 5737 5737 5743 5754 5762 5770 5775 5780 5787 5792 5798 5802 5804 5807 5810 5812 5815 5817 5818 5819 5820 5822 5822 5822
5586 5585 5583 5581 5579 5575 5574 5579 5588 5596 5602 5610 5619 5631 5648 5661 5675 5681 5689 5696 5701 5706 5716 5726 5729 5733 5738 5741 5747 5756 5762 5767 5772 5778 5783 5789 5793 5796 5798 5801 5806 5808 5811 5812 5813 5814 5815 5816 5816
5586 5585 5584 5581 5577 5578 5580 5583 5588 5594 5603 5608 5617 5631 5647 5660 5674 5678 5688 5692 5697 5702 5710 5723 5725 5729 5735 5742 5744 5750 5755 5761 5765 5769 5775 5780 5784 5787 5791 5794 5799 5802 5805 5806 5807 5809 5809 5810 5809
5587 5586 5585 5584 5581 5583 5585 5589 5591 5596 5602 5608 5617 5629 5643 5658 5670 5675 5686 5691 5695 5701 5709 5721 5722 5727 5733 5741 5743 5745 5747 5752 5756 5759 5765 5770 5776 5780 5784 5787 5791 5794 5797 5797 5799 5799 5801 5802 5802
5586 5587 5586 5586 5587 5587 5589 5591 5594 5599 5605 5610 5619 5629 5644 5655 5665 5676 5681 5689 5694 5702 5708 5717 5721 5726 5730 5735 5739 5742 5745 5747 5750 5754 5759 5765 5769 5773 5775 5779 5785 5786 5790 5790 5790 5791 5793 5793 5793
5587 5586 5587 5589 5590 5592 5591 5596 5599 5601 5606 5612 5620 5632 5644 5656 5664 5672 5678 5685 5691 5699 5706 5712 5718 5723 5728 5732 5734 5738 5742 5746 5750 5754 5755 5758 5761 5764 5766 5771 5774 5777 5780 5781 5782 5784 5784 5783 5784
5589 5589 5589 5590 5593 5597 5596 5597 5598 5602 5608 5618 5627 5637 5647 5656 5661 5671 5677 5683 5689 5696 5701 5708 5713 5717 5723 5727 5729 5734 5739 5743 5746 5747 5747 5751 5753 5756 5759 5761 5764 5768 5771 5773 5774 5775 5773 5773 5774
5591 5592 5594 5595 5597 5599 5597 5598 5603 5609 5614 5621 5633 5640 5646 5654 5664 5668 5675 5680 5687 5694 5698 5704 5708 5713 5718 5723 5726 5732 5735 5738 5739 5742 5742 5743 5746 5750 5753 5754 5758 5761 5761 5762 5763 5768 5766 5765 5765
5593 5596 5599 5602 5601 5601 5600 5601 5607 5614 5619 5626 5634 5642 5647 5653 5663 5668 5674 5681 5686 5689 5693 5700 5706 5712 5714 5718 5719 5722 5727 5731 5734 5735 5737 5738 5740 5745 5746 5746 5749 5754 5751 5752 5752 5757 5754 5754 5753
5596 5599 5603 5604 5604 5604 5605 5607 5611 5620 5619 5629 5636 5644 5649 5658 5665 5669 5673 5678 5684 5689 5693 5698 5703 5704 5707 5710 5715 5717 5721 5726 5727 5728 5730 5732 5736 5739 5741 5741 5742 5743 5742 5742 5741 5744 5744 5746 5748
5599 5603 5606 5608 5609 5610 5609 5613 5616 5621 5626 5632 5639 5646 5653 5657 5663 5668 5672 5676 5682 5687 5691 5695 5699 5702 5705 5709 5713 5715 5717 5721 5721 5721 5723 5727 5727 5729 5731 5732 5733 5734 5734 5735 5734 5736 5739 5741 5743
5604 5607 5611 5615 5616 5616 5617 5620 5623 5627 5631 5637 5641 5643 5650 5656 5662 5667 5671 5674 5679 5683 5688 5691 5696 5699 5702 5706 5710 5711 5714 5716 5717 5717 5719 5721 5722 5726 5724 5726 5726 5727 5727 5729 5731 5731 5733 5735 5735
5608 5611 5615 5619 5622 5622 5623 5626 5630 5633 5636 5640 5646 5653 5658 5661 5665 5669 5672 5674 5678 5681 5685 5688 5689 5697 5700 5703 5705 5707 5709 5709 5710 5711 5712 5713 5714 5716 5716 5717 5718 5718 5719 5721 5721 5723 5723 5725 5725
5613 5615 5620 5623 5627 5629 5631 5632 5635 5639 5642 5647 5650 5654 5659 5662 5665 5669 5673 5675 5676 5680 5682 5687 5691 5693 5695 5696 5700 5702 5702 5703 5702 5703 5704 5705 5706 5707 5708 5709 5710 5710 5710 5710 5712 5713 5713 5713 5713
Wind_Speed
45 44 44 45 45 44 42 41 37 42 42 38 47 50 55 54 55 59 52 48 44 39 37 35 30 28 27 26 25 24 23 21 18 16 16 16 15 13 11 9 7 5 4 3 3 3 2 2 2
47 47 49 49 52 50 44 42 44 45 44 45 48 44 52 57 59 56 51 51 47 42 40 36 33 31 29 28 27 26 26 23 21 19 18 17 15 14 12 10 8 6 5 5 4 3 3 3 3
49 50 51 52 56 52 46 48 50 49 51 43 50 46 54 63 64 55 51 52 50 46 42 39 36 33 32 30 28 28 28 25 23 21 20 19 16 15 13 11 10 8 7 6 6 5 4 4 4
49 50 54 57 57 50 49 48 52 57 57 53 47 49 49 61 63 59 52 52 53 50 46 43 39 36 33 32 30 29 29 27 25 24 23 21 17 16 14 13 11 10 8 7 7 7 6 5 6
52 54 55 58 56 52 52 54 52 56 62 58 50 47 51 59 65 62 57 56 55 52 49 46 44 39 36 34 32 32 31 29 27 26 24 22 20 17 16 14 12 11 10 9 8 8 8 7 7
56 54 56 57 57 56 56 56 60 60 60 63 50 48 51 60 67 64 63 63 57 55 51 48 47 43 39 37 35 34 33 31 29 27 25 22 22 19 18 16 13 13 13 11 10 10 9 9 8
55 57 56 58 59 60 59 60 63 66 64 62 48 54 50 60 69 66 65 59 58 58 55 52 49 46 44 40 38 36 36 34 32 29 27 24 23 21 20 19 16 16 15 14 12 11 11 10 9
55 58 60 59 61 62 62 66 69 69 67 54 53 56 52 61 71 71 63 59 62 51 60 54 55 50 47 44 41 39 38 36 33 31 29 27 26 25 23 21 20 18 17 16 15 13 13 12 12
57 59 58 60 63 62 66 69 68 68 65 58 55 57 56 55 72 77 70 60 56 60 60 57 59 56 51 48 45 43 40 39 37 34 32 30 29 27 26 24 23 21 20 19 18 16 15 14 14
58 59 58 61 65 68 70 72 70 66 67 61 58 58 57 61 70 83 84 65 74 49 45 44 63 60 57 51 48 46 43 41 39 36 34 32 30 29 28 26 25 24 23 21 20 19 17 17 17
56 59 60 64 67 69 72 74 71 67 65 59 59 59 59 58 68 81 91 71 78 69 55 57 65 63 59 55 51 48 46 43 40 39 37 34 32 32 30 28 27 26 25 23 23 21 20 19 19
57 60 63 66 65 70 72 70 72 65 65 60 56 57 61 64 53 76 86 71 88 43 48 52 53 63 62 59 54 50 48 45 43 40 38 35 34 32 31 30 30 29 27 26 25 23 22 22 21
57 58 63 60 61 63 64 66 69 60 60 56 60 63 62 59 37 66 80 83 58 58 57 44 50 53 68 61 56 53 50 47 44 42 40 38 36 34 34 34 32 31 29 27 27 25 24 24 23
49 50 51 52 52 50 52 54 56 57 56 54 64 61 62 61 57 37 77 88 69 56 37 46 57 56 74 63 59 54 52 49 46 43 41 39 38 36 37 36 35 34 32 29 28 27 26 26 25
32 31 22 20 32 44 46 50 52 49 55 63 57 59 65 64 65 36 48 83 70 61 41 48 40 49 69 63 59 57 54 50 46 44 42 41 39 38 39 38 37 36 33 31 29 28 30 29 29
8 3 11 18 19 22 34 30 33 46 48 56 57 61 68 60 55 29 36 56 89 56 38 40 32 41 67 67 65 61 54 49 46 46 43 43 41 42 42 41 39 37 35 31 31 34 36 32 32
12 12 13 17 16 16 23 18 36 41 46 53 52 57 62 45 57 29 29 47 78 61 46 40 27 31 58 57 67 60 56 52 49 49 46 45 44 43 43 43 40 40 37 34 39 41 35 36 35
12 10 13 10 14 11 15 21 30 29 43 42 49 55 57 42 43 40 29 25 57 73 54 44 29 22 35 40 54 63 63 59 55 51 50 49 46 46 46 46 45 40 40 39 41 41 36 39 39
5 6 5 10 10 11 16 25 28 31 36 38 48 52 49 44 46 39 26 24 28 50 56 23 22 21 40 41 50 64 65 63 59 53 51 51 51 49 52 45 45 40 41 44 48 42 40 40 41
5 5 6 6 2 13 16 18 19 24 30 38 48 61 46 50 57 40 27 27 29 38 31 35 10 28 30 42 33 57 61 63 62 61 56 51 51 48 51 45 47 42 48 51 52 47 39 40 43
9 5 4 9 3 10 16 15 15 16 23 35 52 38 49 45 51 32 37 33 33 27 26 30 26 18 23 31 26 20 42 60 62 59 54 47 46 50 50 46 44 46 49 41 37 36 37 37 38
9 5 7 19 8 9 21 14 11 14 29 37 50 26 49 49 55 45 21 29 34 37 32 29 29 28 27 19 20 29 36 41 38 38 42 43 42 45 45 45 47 50 48 40 35 40 42 45 49
11 10 12 14 14 9 9 11 14 15 19 36 29 37 42 36 65 28 14 38 37 35 29 29 28 32 29 23 16 18 30 38 33 36 42 43 48 48 43 43 42 39 40 42 38 35 38 42 45
18 19 16 10 7 4 7 8 28 22 26 33 35 25 32 29 46 23 28 32 31 42 44 35 33 29 25 30 21 24 18 19 13 28 50 46 48 41 33 34 39 41 45 52 48 41 42 45 36
13 16 16 17 17 11 15 21 33 30 29 31 26 28 29 24 25 11 20 16 22 21 26 25 22 25 20 24 30 22 15 16 18 18 18 22 26 37 40 42 30 35 36 44 53 39 38 39 28
15 21 13 17 15 21 22 23 29 35 32 35 34 31 26 19 15 14 13 13 11 21 12 9 15 14 13 16 12 15 16 17 19 21 22 21 21 22 23 17 19 23 19 21 30 39 33 22 23
20 17 14 14 16 24 29 28 25 19 22 26 28 28 23 21 16 7 7 9 17 13 13 13 8 9 11 13 15 19 19 20 22 19 20 22 21 23 21 19 23 21 26 21 21 23 24 26 28
21 18 14 6 12 25 25 25 24 16 12 24 24 24 15 9 8 9 11 12 16 14 11 11 10 14 17 21 24 25 27 29 32 32 28 26 27 30 27 25 23 27 27 30 29 29 30 31 33
23 18 17 10 12 22 26 26 22 20 19 13 10 14 12 17 10 14 15 14 11 11 12 13 13 17 20 24 27 30 33 34 35 36 35 36 36 37 33 34 34 34 35 34 34 37 36 37 37
24 21 15 14 14 15 21 23 25 23 18 13 14 8 13 15 17 10 11 14 13 12 15 16 18 21 23 24 26 30 33 35 34 35 37 37 38 39 40 40 38 37 38 38 41 41 40 41 43
Wind_Direction
266 269 267 266 267 269 270 275 283 286 283 274 262 249 235 230 235 231 228 226 226 223 223 222 220 225 226 228 230 228 226 226 232 242 242 237 235 234 231 230 231 237 249 270 285 301 301 275 232
263 265 265 266 267 269 274 279 282 282 282 275 272 255 239 232 230 234 232 227 226 224 224 224 222 221 225 228 229 229 228 227 228 237 245 238 233 233 233 231 233 235 250 269 277 283 288 271 244
260 261 262 264 264 267 278 282 281 279 277 270 269 263 239 230 229 230 229 230 227 225 226 226 224 223 224 228 229 228 229 228 229 232 240 240 234 235 234 238 236 238 247 262 268 271 264 257 242
259 258 260 263 266 272 273 276 279 281 278 277 271 256 245 231 230 227 222 229 227 225 224 227 226 226 226 227 228 228 229 230 229 231 237 241 239 238 237 237 236 240 243 252 265 270 266 256 248
261 257 260 263 265 269 273 274 275 275 276 274 270 259 251 229 229 225 227 226 228 227 224 226 228 227 229 230 229 228 228 228 230 232 236 243 241 232 238 236 236 242 249 254 265 270 270 267 260
263 261 258 262 265 267 268 271 274 273 272 272 266 257 247 227 225 225 224 222 223 226 226 224 228 227 229 232 230 229 226 228 229 233 238 240 237 238 237 238 236 243 249 254 259 266 265 261 259
263 262 260 260 263 266 270 271 272 273 271 268 258 255 241 230 221 222 222 217 222 222 225 224 226 226 228 231 230 227 226 225 228 230 235 240 241 241 239 239 239 241 248 253 256 263 262 258 251
265 263 259 261 265 268 271 273 272 270 270 259 253 248 239 233 216 220 212 211 214 222 223 225 224 225 227 229 230 227 226 225 227 230 232 236 238 239 241 241 242 242 245 250 252 253 258 256 251
266 266 265 265 270 272 270 270 270 268 262 254 244 240 234 234 214 217 215 208 206 215 216 221 226 223 223 226 228 227 225 227 226 228 231 234 238 240 240 242 243 245 246 250 251 252 256 256 253
270 270 268 271 271 270 270 269 265 259 257 248 240 235 230 224 216 213 215 190 200 200 183 199 223 222 222 222 226 227 226 227 229 230 232 235 239 242 244 243 244 245 247 249 251 254 255 258 257
274 271 274 273 274 273 269 266 259 254 244 241 231 231 224 219 220 215 219 194 208 210 184 202 217 219 221 221 223 225 228 228 229 231 232 234 238 241 245 246 248 247 248 249 252 253 255 257 258
280 280 279 278 274 270 267 261 254 247 235 232 226 225 221 216 216 219 223 213 206 184 189 196 205 219 222 221 221 223 227 229 231 232 233 235 238 241 244 247 248 249 249 251 251 254 257 256 258
290 287 283 277 269 264 260 256 250 240 228 229 220 216 219 208 212 226 222 222 197 208 209 194 194 208 217 223 221 223 227 228 230 231 233 235 239 242 244 246 248 249 249 250 253 254 255 257 258
294 285 276 269 264 260 257 252 248 236 218 224 223 213 211 210 217 229 226 225 199 200 209 206 207 213 214 220 224 224 224 227 229 232 234 237 240 242 246 249 249 249 247 248 250 252 255 257 260
290 282 286 284 271 261 256 249 239 221 216 218 218 215 213 214 218 217 237 229 207 198 216 207 203 218 214 217 217 221 223 223 228 232 235 238 240 243 246 249 249 248 247 247 249 257 256 257 261
295 298 318 301 310 264 246 241 225 213 213 210 216 212 209 211 201 217 236 228 227 204 220 199 211 225 207 212 215 216 216 220 224 230 234 238 240 242 245 246 245 246 246 244 249 254 256 258 260
299 283 297 324 299 292 249 211 203 214 206 209 210 211 206 208 197 213 236 226 225 211 194 215 223 227 212 206 213 216 220 222 223 226 230 234 237 240 242 244 243 244 242 240 244 252 254 262 262
294 287 288 316 311 269 215 197 190 219 210 210 208 207 200 200 207 216 214 233 233 229 224 234 238 232 212 207 213 219 222 222 221 223 226 230 234 238 240 244 246 241 245 240 249 251 265 260 263
334 273 254 294 240 231 209 197 201 208 208 215 204 192 191 193 199 207 209 237 240 228 241 250 243 229 222 216 219 223 222 222 222 223 225 228 235 238 242 244 247 246 245 250 255 253 262 261 265
285 244 251 337 269 209 214 199 207 214 210 207 198 194 182 188 198 210 205 196 214 233 244 236 213 214 223 222 232 227 221 221 223 222 227 232 238 238 250 242 246 243 248 246 260 250 257 262 272
163 165 109 58 179 194 185 196 192 185 199 209 192 181 178 183 198 202 195 216 215 199 213 227 231 227 210 212 224 229 239 230 224 226 232 239 241 243 252 251 247 250 246 257 263 263 261 266 265
115 142 119 135 136 211 153 136 210 194 204 214 190 191 180 182 202 200 202 208 199 211 221 223 243 224 199 199 216 224 232 234 242 240 238 242 243 247 251 246 250 249 254 256 261 261 264 265 265
116 134 121 171 169 57 191 239 121 168 186 200 187 176 187 186 204 209 202 188 190 190 209 212 200 200 194 201 202 205 233 238 245 257 251 249 247 248 250 251 253 258 256 253 253 265 259 256 259
131 120 119 116 148 336 70 120 139 161 189 196 209 200 193 193 193 220 215 190 207 206 197 224 203 194 191 191 187 207 216 227 241 245 249 255 254 246 265 265 254 267 267 255 254 261 245 249 258
129 108 104 94 73 100 108 119 156 146 174 192 189 195 202 198 207 214 227 196 184 170 174 177 193 188 183 196 198 205 211 239 245 241 238 244 249 259 268 264 245 258 254 254 251 244 242 238 248
140 127 112 67 50 104 101 103 152 158 135 176 186 194 192 189 182 192 180 213 206 210 221 221 216 235 231 220 245 261 247 240 244 250 244 235 222 229 248 236 247 244 265 235 242 237 243 300 313
148 139 125 82 58 103 97 92 128 134 159 169 187 205 204 204 232 245 262 247 234 223 256 267 262 238 232 237 254 252 249 255 269 282 277 289 282 274 263 263 262 254 269 272 290 304 300 299 298
133 141 144 93 82 111 105 100 108 124 134 167 192 196 202 206 219 228 276 232 257 241 241 257 261 255 242 245 252 258 260 258 262 265 258 257 258 266 264 268 262 265 274 278 283 283 286 290 290
128 130 125 124 100 117 120 113 106 113 133 156 175 176 192 220 231 229 252 231 227 238 237 246 257 258 254 247 250 254 258 259 257 259 257 253 250 251 251 255 256 256 260 259 266 273 274 277 281
121 114 127 132 140 106 114 112 107 111 115 138 164 164 188 216 241 250 269 272 267 267 267 259 252 251 253 249 252 255 257 259 261 261 261 259 258 254 256 259 257 252 253 263 269 272 272 278 283